Wetbulb
60.55 59.66 58.97 58.49 58.00 57.69 57.79 57.64 58.42 57.14 56.93 56.69 56.89 56.48 55.51 54.69 54.44 53.63 53.27 52.57 50.96 50.91
60.77 60.44 59.80 59.20 58.88 58.28 57.91 57.64 57.57 57.63 57.10 56.57 55.69 55.57 55.62 54.85 54.13 53.07 52.78 52.18 51.61 49.93
61.54 61.21 61.00 60.70 59.77 59.20 59.03 58.16 57.15 57.06 57.09 56.62 55.94 55.33 54.49 54.76 53.95 52.61 52.08 51.08 49.78 48.66
60.89 61.21 61.27 60.69 60.40 59.09 59.25 59.11 57.57 57.38 56.86 56.66 55.86 55.32 54.67 55.15 54.36 51.89 52.33 49.65 48.72 48.15
60.42 60.52 60.00 60.12 60.21 59.48 58.88 59.14 58.99 58.55 57.71 57.25 56.51 55.88 54.86 54.75 53.79 52.51 51.65 51.13 47.48 47.46
58.21 59.51 59.30 59.58 59.36 58.52 58.50 58.26 57.84 57.52 57.05 56.88 56.72 56.07 55.35 55.34 54.76 53.41 53.30 52.69 49.46 49.33
47.98 50.01 52.61 57.76 59.35 58.66 58.18 57.88 57.27 56.81 56.99 56.88 56.56 55.86 55.50 54.54 54.48 54.09 53.09 52.67 51.23 50.73
42.27 44.35 46.78 48.75 49.97 53.94 58.32 57.89 58.05 57.44 56.85 57.02 56.37 55.62 54.63 53.72 53.16 52.88 52.55 52.35 51.44 50.94
37.51 38.68 40.75 42.56 45.05 47.85 50.02 52.40 57.12 57.19 57.14 56.62 56.35 52.58 50.76 53.48 53.77 52.89 52.31 51.80 50.94 50.05
33.48 34.63 36.01 38.80 42.19 43.41 44.52 47.19 48.57 49.61 54.19 56.12 56.66 51.56 50.77 49.69 54.31 53.61 52.94 52.64 52.36 50.04
30.45 31.88 33.17 35.04 38.21 40.17 41.65 43.05 45.37 46.70 47.87 48.77 49.96 48.61 49.03 49.17 52.67 53.62 53.93 53.14 52.73 52.01
28.84 29.34 30.29 30.98 33.06 35.76 38.57 40.20 42.03 43.56 44.35 45.13 46.10 46.56 46.63 46.83 48.79 51.43 51.96 52.98 52.40 51.45
27.80 27.65 27.90 29.38 30.31 32.92 35.60 37.29 38.76 40.12 41.57 42.24 42.97 43.98 44.74 45.30 45.76 45.67 48.61 49.50 47.09 46.20
26.39 26.28 27.79 28.40 29.30 30.97 33.69 35.45 36.31 37.22 38.72 39.52 40.56 41.53 42.77 43.84 43.88 44.14 44.84 45.45 43.24 42.73
MSLP
1020.60 1021.09 1021.48 1021.83 1022.21 1022.69 1022.96 1023.19 1023.23 1023.87 1024.22 1024.44 1024.68 1024.99 1025.47 1025.82 1025.87 1026.14 1026.51 1026.81 1027.07 1027.21
1019.99 1020.42 1020.71 1021.02 1021.34 1021.68 1022.01 1022.39 1022.86 1023.14 1023.50 1023.84 1024.25 1024.57 1024.80 1025.12 1025.27 1025.50 1025.84 1026.15 1026.49 1026.78
1019.37 1019.59 1020.04 1020.42 1020.78 1020.99 1021.05 1021.35 1021.84 1022.38 1022.69 1023.13 1023.44 1023.75 1024.22 1024.45 1024.56 1024.98 1025.17 1025.50 1025.91 1026.17
1019.06 1019.24 1019.43 1019.69 1019.89 1020.09 1020.27 1020.59 1021.01 1021.30 1021.71 1022.09 1022.53 1022.84 1023.37 1023.65 1023.90 1024.30 1024.53 1024.88 1025.19 1025.35
1018.71 1018.98 1019.21 1019.28 1019.24 1019.41 1019.65 1019.89 1020.24 1020.59 1021.06 1021.31 1021.49 1021.78 1022.19 1022.63 1023.04 1023.31 1023.60 1023.82 1024.40 1024.53
1018.72 1018.70 1018.67 1018.72 1018.86 1019.09 1019.22 1019.36 1019.67 1020.02 1020.37 1020.65 1020.88 1021.16 1021.40 1021.65 1021.96 1022.24 1022.45 1022.79 1023.19 1023.33
1019.67 1019.42 1019.18 1018.66 1018.55 1018.60 1018.73 1018.94 1019.18 1019.37 1019.55 1019.77 1020.03 1020.36 1020.56 1020.72 1020.95 1021.21 1021.47 1021.69 1021.95 1022.19
1020.55 1020.27 1019.84 1019.39 1019.04 1018.76 1018.46 1018.41 1018.53 1018.72 1018.89 1018.99 1019.23 1019.34 1019.55 1019.79 1020.03 1020.24 1020.41 1020.61 1020.79 1020.90
1021.29 1020.95 1020.63 1020.27 1019.77 1019.20 1018.87 1018.53 1018.19 1018.06 1018.12 1018.18 1018.28 1018.35 1018.58 1018.79 1019.00 1019.05 1019.22 1019.36 1019.54 1019.75
1022.04 1021.64 1021.26 1020.91 1020.34 1019.79 1019.35 1018.95 1018.57 1018.32 1017.96 1017.67 1017.59 1017.67 1017.79 1017.88 1018.07 1018.11 1018.09 1018.13 1018.25 1018.59
1022.64 1022.26 1021.80 1021.34 1020.86 1020.40 1019.95 1019.41 1018.95 1018.45 1018.24 1018.14 1017.80 1017.75 1017.63 1017.51 1017.31 1017.15 1017.04 1017.14 1017.29 1017.47
1023.28 1022.75 1022.28 1021.72 1021.23 1020.74 1020.24 1019.73 1019.29 1018.84 1018.47 1018.21 1017.92 1017.81 1017.53 1017.52 1017.33 1016.81 1016.39 1016.36 1016.38 1016.51
1023.60 1023.06 1022.47 1021.99 1021.52 1020.98 1020.40 1019.86 1019.45 1019.03 1018.65 1018.24 1017.85 1017.59 1017.46 1017.28 1017.06 1016.63 1016.28 1015.96 1015.80 1015.84
1023.83 1023.39 1022.69 1022.07 1021.61 1021.09 1020.48 1019.76 1019.30 1018.86 1018.52 1018.21 1017.79 1017.38 1017.13 1016.99 1016.71 1016.39 1016.00 1015.68 1015.55 1015.56
Wind_Speed
11 7 7 8 6 6 7 8 10 9 8 9 10 9 8 6 7 8 8 10 9 6
10 10 9 10 9 8 8 6 7 9 10 9 8 9 9 8 9 9 8 9 8 7
11 12 11 9 11 10 9 10 10 10 10 10 10 10 10 9 9 9 8 7 9 8
9 11 11 11 12 12 10 12 11 11 12 12 11 11 11 12 11 11 10 9 9 10
9 8 8 10 11 10 11 11 11 11 11 11 12 12 13 13 12 13 13 12 10 11
4 8 9 11 10 8 10 10 10 10 11 12 12 11 13 14 14 14 14 13 13 13
7 7 7 5 7 8 9 10 10 11 12 12 12 11 12 12 13 13 13 13 13 13
8 8 8 8 7 7 7 9 10 10 11 11 10 9 12 12 13 13 14 13 14 14
9 9 8 9 8 7 6 8 7 10 12 12 9 13 17 14 12 13 14 14 13 13
9 9 9 9 8 8 8 7 5 6 6 9 10 12 16 18 13 11 13 14 13 10
9 9 9 9 8 8 8 8 6 6 5 6 5 10 8 13 13 13 14 13 14 13
8 9 8 8 9 9 8 8 8 8 8 7 6 8 10 7 7 10 12 12 12 13
9 9 9 9 9 8 8 8 7 9 8 8 8 9 11 9 5 8 8 8 7 13
9 10 9 9 8 9 9 9 8 9 8 9 8 9 12 12 7 6 7 7 6 6
Wind_Direction
195 193 192 194 186 198 195 206 206 201 203 210 208 206 201 209 207 204 214 217 217 219
193 203 202 198 202 199 202 200 196 202 202 205 203 207 204 212 219 205 212 222 221 222
204 203 208 208 210 209 207 199 190 194 201 205 208 206 202 215 221 212 216 217 216 222
210 213 210 208 212 208 202 206 202 204 202 204 207 208 208 217 217 214 221 214 216 226
222 211 214 221 218 208 207 207 217 215 214 215 214 211 211 216 215 217 217 220 208 226
289 227 219 222 223 212 219 212 213 210 216 222 221 216 218 219 221 221 223 222 214 223
7 3 356 305 233 214 213 220 218 219 224 225 225 226 225 220 221 222 224 223 221 223
0 354 353 358 360 344 242 223 226 225 225 230 223 219 214 212 216 222 229 228 227 224
357 354 354 348 342 346 336 354 268 232 230 229 225 222 216 218 219 220 224 230 227 228
358 353 352 340 337 345 339 332 327 334 313 254 242 221 222 217 229 228 228 231 232 225
356 346 345 342 340 337 330 324 319 322 317 314 324 349 293 250 236 236 235 232 232 230
341 338 336 337 335 330 324 322 315 315 310 306 302 302 313 318 311 262 248 244 233 227
329 328 326 325 324 316 310 304 309 306 299 294 295 295 292 291 278 281 275 252 232 223
322 320 315 320 317 315 311 308 303 299 302 302 297 299 303 300 286 270 268 254 238 230